Yatton Keynell, United Kingdom

1:43 AM GMT on March 27, 2019 (GMT +0000)
Yatton Keynell

Weather History for 03740 - July, 2005

Change the Weather History Date:

Sunday, July 17, 2005

  Actual Average Record
Temperature  
Mean Temperature 66 °F -  
Max Temperature 79 °F 68 °F - ()
Min Temperature 53 °F 53 °F - ()
Cooling Degree Days 1    
Growing Degree Days 16 (Base 50)    
Moisture  
Dew Point 53 °F    
Average Humidity 63    
Maximum Humidity 94    
Minimum Humidity 31    
Precipitation  
Precipitation 0.00 in 0.08 in - ()
Sea Level Pressure  
Sea Level Pressure 30.00 in    
Wind  
Wind Speed 5 mph ()    
Max Wind Speed 9 mph    
Max Gust Speed -    
Visibility 11.7 miles    
Events      
T = Trace of Precipitation, MM = Missing Value Source: Averaged Metar Reports

Daily Weather History Graph

Daily Weather History Graph

Search for Another Location

Airport or City:

Astronomy

Jul. 17, 2005 Rise Set
Actual Time 5:10 AM BST 9:16 PM BST
Civil Twilight 4:26 AM BST 10:00 PM BST
Nautical Twilight 3:23 AM BST 11:03 PM BST
Astronomical Twilight 1:46 AM BST 12:41 AM BST
Moon 5:46 PM BST (7/17) 12:48 AM BST (7/17)
Length of Visible Light 17h 34m
Length of Day
16h 05m
Waxing Gibbous, 79% of the Moon is Illuminated
Jul 17
Waxing Gibbous
Jul 21
Full
Jul 28
Last Quarter
Aug 5
New
Aug 13
First Quarter

Hourly Weather History & Observations

Time (BST) Temp. Dew Point Humidity Pressure Visibility Wind Dir Wind Speed Gust Speed Precip Events Conditions
12:50 AM 58 °F 54 °F 83% 30.09 in 10 mi WNW 5.8 mph - -   Clear
12:50 AM 59.0 °F 53.6 °F 82% 30.06 in - WNW 5.8 mph - N/A   Clear
1:50 AM 57.2 °F 53.6 °F 88% 30.06 in - NW 4.6 mph - N/A   Clear
2:50 AM 57.2 °F 53.6 °F 88% 30.06 in - North 4.6 mph - N/A   Clear
3:50 AM 55 °F 53 °F 92% 30.07 in 7 mi NNE 5.8 mph - -   Clear
3:50 AM 55.4 °F 53.6 °F 94% 30.06 in - NNE 5.8 mph - N/A   Clear
4:50 AM 55.4 °F 50.0 °F 82% 30.06 in - ENE 3.5 mph - N/A   Clear
5:50 AM 55.4 °F 50.0 °F 82% 30.06 in - NE 5.8 mph - N/A   Clear
6:50 AM 58 °F 51 °F 70% 30.07 in 16 mi NE 5.8 mph - -  
6:50 AM 57.2 °F 50.0 °F 77% 30.06 in - NE 5.8 mph - N/A   Clear
7:50 AM 59.0 °F 51.8 °F 77% 30.06 in - NE 6.9 mph - N/A   Clear
8:50 AM 62.6 °F 53.6 °F 72% 30.04 in - NNE 3.5 mph - N/A   Clear
9:50 AM 67 °F 54 °F 55% 30.05 in 16 mi NNW 1.2 mph - -   Scattered Clouds
9:50 AM 66.2 °F 55.4 °F 68% 30.04 in - NNW 1.2 mph - N/A   Clear
10:50 AM 69.8 °F 55.4 °F 60% 30.04 in 6.2 mi SW 2.3 mph - N/A   Partly Cloudy
11:50 AM 73.4 °F 51.8 °F 47% 30.04 in 6.2 mi SSW 5.8 mph - N/A   Partly Cloudy
12:50 PM 75 °F 55 °F 39% 30.01 in 19 mi SSW 5.8 mph - -   Scattered Clouds
12:50 PM 75.2 °F 55.4 °F 50% 30.01 in 6.2 mi SSW 5.8 mph - N/A   Partly Cloudy
1:50 PM 77.0 °F 53.6 °F 44% 30.01 in - SSW 6.9 mph - N/A   Clear
2:50 PM 77.0 °F 51.8 °F 41% 29.98 in - SSW 6.9 mph - N/A   Clear
3:50 PM 79 °F 55 °F 33% 29.95 in 19 mi SW 8.1 mph - -   Scattered Clouds
3:50 PM 78.8 °F 55.4 °F 44% 29.95 in - SW 8.1 mph - N/A   Clear
4:50 PM 78.8 °F 53.6 °F 42% 29.95 in - South 8.1 mph - N/A   Clear
5:50 PM 77.0 °F 55.4 °F 47% 29.92 in - SW 6.9 mph - N/A   Clear
6:50 PM 76 °F 51 °F 31% 29.90 in 25 mi SW 9.2 mph - -   Scattered Clouds
6:50 PM 75.2 °F 51.8 °F 44% 29.92 in - SW 9.2 mph - N/A   Clear
8:50 PM 69.8 °F 50.0 °F 49% 29.89 in - SSW 3.5 mph - N/A   Clear
9:50 PM 65 °F 54 °F 60% 29.90 in 22 mi WSW 8.1 mph - -   Scattered Clouds
9:50 PM 66.2 °F 55.4 °F 68% 29.89 in - WSW 8.1 mph - N/A   Clear
10:50 PM 62.6 °F 55.4 °F 77% 29.89 in - SW 5.8 mph - N/A   Clear
11:50 PM 60.8 °F 55.4 °F 82% 29.89 in - SW 6.9 mph - N/A   Clear